Location: *
(46.1866°S, 178.5290°W)
Time: 10:24:35
(UTC+00:00)

Cosmos 1763 Rocket - Pass Details

Date: 19 May 2021
Orbit: 733 x 780 km, 74.0° (Epoch: 12 June)

Event Time Altitude Azimuth Distance (km) Brightness Sun altitude
Rises 06:41:29 0° 341° (NNW) 3,245 7.1 -22.8°
Reaches altitude 10° 06:43:50 10° 341° (NNW) 2,330 6.3 -23.2°
Maximum altitude 06:49:10 87° 68° (ENE) 797 3.4 -24.2°
Enters shadow 06:50:53 45° 156° (SSE) 1,068 4.0 -24.5°
